1485842401.18,17006,9.75,73194.0,-8.23,-36.49,-36.79,0,*5A
1485842402.46,17007,9.75,73192.8,-8.23,-36.49,-36.79,0,*5B
1485842403.72,17008,9.81,73198.0,-8.23,-36.49,-36.73,0,*5E
1485842405.01,17009,9.75,73192.5,-8.23,-36.61,-36.91,0,*59
1485842406.29,17010,9.75,73192.8,-8.23,-36.61,-36.79,0,*57
1485842407.56,17011,9.75,73196.3,-8.23,-36.49,-36.55,0,*52
1485842408.82,17012,9.75,73194.5,-8.23,-36.49,-36.55,0,*51
1485842410.09,17013,9.75,73194.0,-8.23,-36.37,-36.55,0,*59
1485842411.35,17014,9.75,73194.0,-8.23,-36.55,-36.79,0,*54
1485842412.63,17015,9.75,73196.3,-8.23,-36.61,-36.79,0,*52
1485842413.86,17016,9.75,73196.3,-8.25,-36.61,-36.97,0,*57
1485842415.12,17017,9.75,73194.3,-8.23,-36.55,-36.79,0,*57
1485842416.36,17018,9.75,73194.0,-8.25,-36.61,-36.97,0,*59
1485842417.56,17019,9.75,73194.5,-8.25,-36.67,-36.97,0,*5E
1485842418.8,17020,9.75,73194.3,-8.25,-36.61,-36.85,0,*51
1485842420.02,17021,9.75,73194.5,-8.25,-36.61,-36.85,0,*50
1485842421.28,17022,9.75,73192.5,-8.25,-36.37,-36.37,0,*59
1485842422.51,17023,9.75,73192.3,-8.25,-36.55,-36.61,0,*5F
1485842423.72,17024,9.75,73192.3,-8.25,-36.67,-36.97,0,*50
1485842424.98,17025,9.75,73192.0,-8.27,-36.61,-36.85,0,*56
1485842426.2,17026,9.75,73194.3,-8.25,-36.61,-36.85,0,*57
1485842427.46,17027,9.75,73190.5,-8.25,-36.61,-36.79,0,*55
1485842428.72,17028,9.75,73190.8,-8.25,-36.61,-36.79,0,*5A
1485842429.97,17029,9.75,73194.5,-8.27,-36.55,-36.79,0,*5E
1485842431.19,17030,9.75,73192.0,-8.25,-36.55,-36.55,0,*5A
1485842432.4,17031,9.75,73188.5,-8.25,-36.43,-36.43,0,*5B
1485842433.64,17032,9.75,73188.8,-8.25,-36.37,-36.55,0,*5C
1485842434.86,17033,9.75,73192.5,-8.25,-36.43,-36.55,0,*5E
1485842436.09,17034,9.75,73192.5,-8.25,-36.61,-36.85,0,*54
1485842437.32,17035,9.75,73196.3,-8.25,-36.79,-37.03,0,*53
1485842438.55,17036,9.75,73192.0,-8.25,-36.61,-36.85,0,*56
1485842439.8,17037,9.75,73194.5,-8.27,-36.61,-36.85,0,*55
1485842441.01,17038,9.75,73192.8,-8.25,-36.43,-36.43,0,*52
1485842442.25,17039,9.75,73192.3,-8.25,-36.25,-36.43,0,*53
1485842443.51,17040,9.75,73194.3,-8.27,-36.37,-36.55,0,*5B
1485842444.73,17041,9.75,73190.8,-8.25,-36.43,-36.55,0,*5B
1485842445.97,17042,9.75,73196.3,-8.25,-36.37,-36.55,0,*5B
1485842447.23,17043,9.75,73194.8,-8.27,-36.25,-36.43,0,*5C
1485842448.49,17044,9.75,73194.0,-8.27,-36.25,-36.19,0,*54
1485842449.75,17045,9.75,73194.5,-8.27,-36.07,-36.25,0,*5A
1485842451.01,17046,9.75,73194.5,-8.27,-36.19,-36.25,0,*56
1485842452.27,17047,9.75,73194.5,-8.25,-36.37,-36.37,0,*5A
1485842453.53,17048,9.75,73192.3,-8.27,-36.25,-36.43,0,*57
1485842454.76,17049,9.75,73194.5,-8.25,-36.37,-36.43,0,*57
1485842456.02,17050,9.75,73192.8,-8.27,-36.43,-36.61,0,*5E
1485842457.24,17051,9.75,73194.5,-8.25,-36.43,-36.55,0,*5A
1485842458.48,17052,9.75,73192.3,-8.25,-36.37,-36.55,0,*5A
1485842459.76,17053,9.75,73190.8,-8.27,-36.25,-36.37,0,*5E
1485842460.96,17054,9.75,73192.8,-8.25,-36.19,-36.19,0,*58
1485842462.2,17055,9.75,73192.3,-8.25,-36.19,-36.25,0,*56
1485842463.44,17056,9.75,73192.3,-8.25,-36.07,-36.25,0,*5A
1485842464.66,17057,9.75,73192.8,-8.25,-36.19,-36.37,0,*57
1485842465.93,17058,9.75,73192.3,-8.27,-36.37,-36.55,0,*52
1485842467.19,17059,9.75,73192.5,-8.23,-36.49,-36.55,0,*5E
1485842468.48,17060,9.75,73196.5,-8.27,-36.25,-36.25,0,*5D
1485842469.74,17061,9.75,73194.8,-8.25,-36.37,-36.37,0,*5E
1485842470.95,17062,9.75,73196.8,-8.25,-36.55,-36.43,0,*5A
1485842472.19,17063,9.75,73196.8,-8.25,-36.37,-36.55,0,*58
1485842473.43,17064,9.75,73194.0,-8.25,-36.25,-36.43,0,*5B
1485842474.66,17065,9.75,73194.8,-8.25,-35.83,-36.07,0,*55
1485842475.89,17066,9.75,73190.3,-8.25,-35.83,-36.07,0,*56
1485842477.13,17067,9.75,73190.3,-8.25,-36.37,-36.43,0,*5B
1485842478.4,17068,9.75,73190.3,-8.23,-36.49,-36.55,0,*5C
1485842479.63,17069,9.75,73190.5,-8.25,-36.43,-36.79,0,*5F
1485842480.86,17070,9.75,73188.0,-8.25,-36.43,-36.61,0,*5E
1485842482.15,17071,9.75,73188.5,-8.23,-36.37,-36.49,0,*50
1485842483.4,17072,9.75,73192.5,-8.23,-36.13,-36.19,0,*50
1485842484.61,17073,9.75,73192.0,-8.25,-36.07,-36.07,0,*5D
1485842485.81,17074,9.75,73194.3,-8.25,-36.01,-36.19,0,*53
1485842487.05,17075,9.75,73192.5,-8.25,-36.19,-36.25,0,*54
1485842488.33,17076,9.75,73194.3,-8.23,-36.49,-36.49,0,*5E
1485842489.59,17077,9.75,73194.0,-8.23,-36.55,-36.79,0,*51
1485842490.86,17078,9.75,73192.8,-8.23,-36.49,-36.55,0,*5D
1485842492.14,17079,9.75,73192.3,-8.23,-36.61,-36.91,0,*5E
1485842493.38,17080,9.75,73192.3,-8.25,-36.55,-36.61,0,*56
1485842494.61,17081,9.75,73192.5,-8.25,-36.61,-36.85,0,*5A
1485842495.81,17082,9.75,73194.0,-8.25,-36.67,-36.85,0,*5F
1485842497.02,17083,9.75,73190.3,-8.25,-36.67,-36.85,0,*5E
1485842498.25,17084,9.75,73188.3,-8.25,-36.61,-36.85,0,*5F
1485842499.48,17085,9.75,73192.5,-8.25,-36.37,-36.43,0,*57
1485842500.72,17086,9.75,73190.3,-8.25,-36.25,-36.43,0,*57
1485842501.96,17087,9.75,73190.3,-8.25,-36.37,-36.43,0,*55
1485842503.19,17088,9.75,73194.3,-8.25,-36.43,-36.79,0,*50
1485842504.42,17089,9.75,73188.5,-8.25,-36.55,-36.79,0,*56
1485842505.66,17090,9.75,73192.5,-8.25,-36.55,-36.61,0,*57
1485842506.89,17091,9.75,73192.5,-8.25,-36.55,-36.79,0,*5F
1485842508.12,17092,9.75,73194.8,-8.25,-36.55,-36.79,0,*5C
1485842509.35,17093,9.75,73194.5,-8.25,-36.61,-36.85,0,*59
1485842510.58,17094,9.75,73190.0,-8.27,-36.67,-36.85,0,*5A
1485842511.79,17095,9.75,73190.3,-8.25,-36.67,-36.97,0,*5A
1485842513.02,17096,9.75,73192.8,-8.27,-36.67,-36.97,0,*5B
1485842514.28,17097,9.75,73190.3,-8.27,-36.25,-36.43,0,*55
1485842515.51,17098,9.75,73192.3,-8.27,-36.07,-36.19,0,*55
1485842516.79,17099,9.75,73194.5,-8.27,-36.37,-36.37,0,*5B
1485842518.04,17100,9.75,73194.0,-8.27,-36.55,-36.79,0,*54
1485842519.3,17101,9.75,73192.8,-8.27,-36.55,-36.61,0,*5C
1485842520.56,17102,9.75,73192.0,-8.27,-36.43,-36.61,0,*58
1485842521.82,17103,9.75,73196.3,-8.27,-36.55,-36.61,0,*5E
1485842523.03,17104,9.75,73192.0,-8.25,-36.43,-36.55,0,*5B
1485842524.32,17105,9.75,73192.0,-8.27,-36.25,-36.25,0,*5F
1485842525.55,17106,9.75,73192.8,-8.27,-36.07,-36.07,0,*5C
1485842526.79,17107,9.75,73192.0,-8.25,-36.07,-36.25,0,*5F
1485842528.05,17108,9.75,73192.0,-8.27,-36.19,-36.25,0,*5D
1485842529.26,17109,9.75,73188.8,-8.25,-36.07,-36.07,0,*51
1485842530.47,17110,9.75,73192.8,-8.25,-36.07,-36.07,0,*59
1485842531.73,17111,9.75,73190.8,-8.23,-35.95,-36.01,0,*50
1485842532.98,17112,9.75,73194.8,-8.25,-36.25,-36.55,0,*5C
1485842534.19,17113,9.75,73194.5,-8.25,-36.07,-36.19,0,*55
1485842535.43,17114,9.75,73192.8,-8.25,-36.37,-36.55,0,*59
1485842536.64,17115,9.75,73194.5,-8.25,-36.43,-36.43,0,*5C
1485842537.88,17116,9.75,73190.8,-8.25,-36.37,-36.55,0,*5B
1485842539.14,17117,9.75,73194.3,-8.27,-36.07,-36.25,0,*5C
1485842540.35,17118,9.75,73194.5,-8.25,-35.71,-36.07,0,*53
1485842541.59,17119,9.75,73194.8,-8.23,-35.77,-36.01,0,*54
1485842542.82,17120,9.75,73194.3,-8.25,-35.83,-36.07,0,*55
1485842544.03,17121,9.75,73192.0,-8.25,-36.19,-36.19,0,*5B
1485842545.26,17122,9.75,73196.5,-8.25,-36.37,-36.43,0,*5B
1485842546.5,17123,9.75,73194.8,-8.25,-36.43,-36.61,0,*59
1485842547.76,17124,9.75,73196.5,-8.25,-36.61,-36.61,0,*5E
1485842548.97,17125,9.75,73194.3,-8.25,-36.43,-36.55,0,*58
1485842550.21,17126,9.75,73192.3,-8.25,-36.25,-36.43,0,*5C
1485842551.47,17127,9.75,73190.8,-8.27,-36.37,-36.43,0,*5C
1485842552.71,17128,9.75,73190.8,-8.25,-36.07,-36.25,0,*52
1485842553.94,17129,9.75,73194.3,-8.25,-36.25,-36.43,0,*53
1485842555.18,17130,9.75,73194.0,-8.25,-36.25,-36.43,0,*5B
1485842556.44,17131,9.75,73190.5,-8.23,-36.01,-36.13,0,*5F
1485842557.71,17132,9.75,73198.8,-8.23,-35.95,-36.01,0,*51
1485842558.98,17133,9.75,73194.8,-8.21,-35.95,-36.13,0,*51
1485842560.26,17134,9.75,73196.3,-8.23,-36.37,-36.49,0,*50
1485842561.52,17135,9.75,73194.5,-8.23,-36.55,-36.79,0,*56
1485842562.77,17136,9.75,73194.3,-8.23,-36.13,-36.19,0,*51
1485842564.04,17137,9.75,73190.3,-8.23,-35.95,-36.01,0,*54
1485842565.25,17138,9.75,73196.5,-8.25,-35.89,-36.19,0,*59
1485842566.47,17139,9.75,73198.0,-8.21,-35.77,-36.01,0,*54
1485842567.71,17140,9.75,73194.3,-8.23,-36.01,-36.01,0,*5A
1485842568.97,17141,9.75,73196.0,-8.23,-36.13,-36.31,0,*5B
1485842570.23,17142,9.75,73192.8,-8.23,-36.31,-36.37,0,*5E
1485842571.48,17143,9.75,73198.3,-8.23,-36.31,-36.37,0,*5F
1485842572.72,17144,9.75,73192.5,-8.21,-36.19,-36.37,0,*50
1485842573.98,17145,9.75,73196.5,-8.21,-35.65,-35.95,0,*52
1485842575.19,17146,9.75,73194.8,-8.21,-36.19,-36.31,0,*54
1485842576.43,17147,9.75,73192.3,-8.21,-36.01,-36.13,0,*5C
1485842577.67,17148,9.75,73196.8,-8.21,-35.83,-36.01,0,*59
1485842578.94,17149,9.75,73196.5,-8.21,-35.83,-35.95,0,*56
1485842580.17,17150,9.75,73196.8,-8.21,-36.13,-36.19,0,*53
1485842581.41,17151,9.75,73192.0,-8.21,-36.13,-36.01,0,*5B
1485842582.66,17152,9.75,73192.3,-8.21,-35.83,-36.01,0,*52
1485842583.89,17153,9.75,73196.5,-8.21,-36.01,-36.13,0,*59
1485842585.16,17154,9.75,73192.5,-8.21,-35.95,-36.13,0,*50
1485842586.41,17155,9.75,73198.5,-8.21,-36.13,-36.13,0,*5C
1485842587.65,17156,9.75,73194.0,-8.21,-36.01,-36.13,0,*5C
1485842588.87,17157,9.75,73194.8,-8.21,-36.31,-36.31,0,*5E
1485842590.1,17158,9.75,73198.5,-8.21,-36.13,-36.19,0,*5B
1485842591.33,17159,9.75,73198.3,-8.21,-36.13,-36.31,0,*50
1485842592.59,17160,9.75,73198.3,-8.21,-36.37,-36.49,0,*53
1485842593.82,17161,9.75,73198.8,-8.21,-36.31,-36.37,0,*5D
1485842595.06,17162,9.75,73196.8,-8.21,-36.01,-36.13,0,*5B
1485842596.3,17163,9.75,73196.0,-8.21,-36.13,-36.31,0,*59
1485842597.53,17164,9.75,73192.5,-8.21,-36.13,-36.19,0,*54
1485842598.79,17165,9.75,73196.8,-8.21,-36.49,-36.49,0,*5F
1485842600.02,17166,9.75,73198.0,-8.19,-36.43,-36.67,0,*51
1485842601.28,17167,9.75,73196.8,-8.19,-36.43,-36.49,0,*5C
1485842602.54,17168,9.75,73196.3,-8.19,-36.49,-36.73,0,*50
1485842603.78,17169,9.75,73194.8,-8.21,-36.49,-36.73,0,*5A
1485842605.02,17170,9.75,73198.0,-8.21,-36.49,-36.73,0,*52
1485842606.28,17171,9.75,73196.8,-8.21,-36.37,-36.37,0,*5A
1485842607.51,17172,9.75,73192.0,-8.21,-36.13,-36.19,0,*53
1485842608.72,17173,9.75,73192.0,-8.21,-36.01,-36.19,0,*51
1485842609.98,17174,9.75,73196.3,-8.23,-36.13,-36.31,0,*5D
1485842611.19,17175,9.75,73194.8,-8.21,-36.31,-36.31,0,*5E
1485842612.43,17176,9.75,73196.0,-8.23,-36.19,-36.31,0,*55
1485842613.64,17177,9.75,73198.8,-8.21,-36.31,-36.31,0,*5C
1485842614.87,17178,9.75,73196.0,-8.21,-36.31,-36.37,0,*55
1485842616.11,17179,9.75,73198.8,-8.21,-36.31,-36.37,0,*54
1485842617.34,17180,9.75,73196.8,-8.19,-36.31,-36.43,0,*5A
1485842618.58,17181,9.75,73196.0,-8.21,-36.31,-36.37,0,*53
1485842619.84,17182,9.75,73196.0,-8.21,-36.37,-36.49,0,*5F
1485842621.1,17183,9.75,73198.5,-8.21,-36.49,-36.49,0,*57
1485842622.34,17184,9.75,73198.3,-8.21,-36.49,-36.73,0,*59
1485842623.58,17185,9.75,73200.5,-8.21,-36.49,-36.55,0,*5C
1485842624.8,17186,9.75,73198.5,-8.21,-36.55,-36.73,0,*56
1485842626.04,17187,9.75,73196.5,-8.21,-36.49,-36.55,0,*5E
1485842627.28,17188,9.75,73198.5,-8.21,-36.49,-36.73,0,*55
1485842628.52,17189,9.75,73196.5,-8.21,-36.37,-36.55,0,*59
1485842629.77,17190,9.75,73198.8,-8.21,-36.37,-36.55,0,*51
1485842631.03,17191,9.75,73196.5,-8.21,-36.37,-36.49,0,*5D
1485842632.29,17192,9.75,73198.8,-8.21,-36.37,-36.49,0,*5E
1485842633.5,17193,9.75,73198.3,-8.21,-36.19,-36.19,0,*56
1485842634.73,17194,9.75,73198.0,-8.21,-36.31,-36.37,0,*57
1485842635.97,17195,9.75,73200.3,-8.21,-36.49,-36.55,0,*5D
1485842637.22,17196,9.75,73198.0,-8.23,-36.55,-36.55,0,*51
1485842638.43,17197,9.75,73196.8,-8.21,-36.55,-36.73,0,*56
1485842639.7,17198,9.75,73198.8,-8.23,-36.49,-36.55,0,*52
1485842640.96,17199,9.75,73196.3,-8.23,-36.55,-36.79,0,*50
1485842642.22,17200,9.75,73192.0,-8.23,-36.55,-36.91,0,*55
1485842643.44,17201,9.75,73194.0,-8.21,-36.55,-36.55,0,*5E
1485842644.71,17202,9.75,73198.0,-8.23,-36.37,-36.55,0,*5B
1485842645.97,17203,9.75,73196.5,-8.23,-36.31,-36.37,0,*58
1485842647.25,17204,9.75,73198.3,-8.23,-36.37,-36.37,0,*59
1485842648.5,17205,9.75,73196.8,-8.23,-36.31,-36.37,0,*5E
1485842649.74,17206,9.75,73200.3,-8.23,-36.01,-36.19,0,*52
1485842651.01,17207,9.75,73196.0,-8.23,-35.83,-36.01,0,*53
1485842652.3,17208,9.75,73192.0,-8.23,-35.83,-35.95,0,*52
1485842653.53,17209,9.75,73196.3,-8.21,-36.19,-36.13,0,*5C
1485842654.77,17210,9.75,73196.5,-8.23,-36.19,-36.19,0,*5C
1485842655.98,17211,9.75,73192.5,-8.21,-36.31,-36.19,0,*55
1485842657.21,17212,9.75,73196.0,-8.21,-36.13,-36.31,0,*5C
1485842658.44,17213,9.75,73192.0,-8.23,-36.19,-36.19,0,*5F
1485842659.68,17214,9.75,73196.3,-8.21,-36.31,-36.37,0,*5C
1485842660.91,17215,9.75,73198.8,-8.21,-36.49,-36.73,0,*52
1485842662.17,17216,9.75,73198.3,-8.21,-36.61,-36.79,0,*51
1485842663.43,17217,9.75,73196.0,-8.23,-36.73,-36.79,0,*51
1485842664.67,17218,9.75,73196.3,-8.23,-36.55,-36.73,0,*50
1485842665.94,17219,9.75,73198.8,-8.23,-36.61,-36.55,0,*52
1485842667.18,17220,9.75,73194.5,-8.23,-36.55,-36.73,0,*5B
1485842668.46,17221,9.75,73196.8,-8.23,-36.37,-36.37,0,*5E
1485842669.69,17222,9.75,73198.3,-8.23,-36.31,-36.19,0,*57
1485842670.92,17223,9.75,73194.5,-8.21,-36.13,-36.19,0,*54
1485842672.16,17224,9.75,73194.3,-8.23,-36.31,-36.31,0,*5B
1485842673.44,17225,9.75,73198.3,-8.23,-36.49,-36.37,0,*53
1485842674.71,17226,9.75,73194.8,-8.23,-36.49,-36.55,0,*54
1485842675.98,17227,9.75,73198.3,-8.23,-36.49,-36.55,0,*55
1485842677.26,17228,9.75,73200.3,-8.23,-36.49,-36.49,0,*57
1485842678.5,17229,9.75,73196.0,-8.25,-36.37,-36.43,0,*53
1485842679.73,17230,9.75,73196.0,-8.25,-36.43,-36.37,0,*5B
1485842680.95,17231,9.75,73198.8,-8.25,-36.55,-36.55,0,*59
1485842682.18,17232,9.75,73196.5,-8.25,-36.55,-36.79,0,*54
1485842683.46,17233,9.75,73198.8,-8.27,-36.61,-36.79,0,*50
1485842684.72,17234,9.75,73198.3,-8.25,-36.61,-36.61,0,*5C
1485842685.98,17235,9.75,73196.8,-8.25,-36.37,-36.25,0,*5E
1485842687.19,17236,9.75,73194.3,-8.25,-36.07,-36.07,0,*5E
1485842688.39,17237,9.75,73196.0,-8.25,-36.07,-36.07,0,*5F
1485842689.67,17238,9.75,73202.0,-8.27,-36.37,-36.37,0,*52
1485842690.91,17239,9.75,73200.0,-8.25,-36.19,-36.25,0,*5E
1485842692.12,17240,9.75,73198.0,-8.25,-36.07,-36.07,0,*5F
1485842693.41,17241,9.75,73196.8,-8.23,-35.95,-35.83,0,*5F
1485842694.62,17242,9.75,73196.3,-8.25,-36.07,-36.01,0,*5B
1485842695.84,17243,9.75,73196.3,-8.25,-36.07,-36.01,0,*5A
1485842697.14,17244,9.75,73198.0,-8.23,-35.83,-35.95,0,*5A
1485842698.43,17245,9.75,73198.8,-8.23,-35.95,-35.95,0,*5C
1485842699.66,17246,9.75,73192.3,-8.23,-36.19,-36.19,0,*5F
1485842700.89,17247,9.75,73190.3,-8.23,-36.19,-36.19,0,*5E
1485842702.13,17248,9.75,73192.5,-8.23,-36.31,-36.31,0,*51
1485842703.37,17249,9.75,73198.3,-8.23,-36.19,-36.31,0,*5A
1485842704.61,17250,9.75,73196.8,-8.23,-36.01,-36.01,0,*58
1485842705.84,17251,9.75,73198.0,-8.23,-36.19,-36.31,0,*53
1485842707.08,17252,9.75,73198.0,-8.23,-36.19,-36.31,0,*50
1485842708.37,17253,9.75,73198.5,-8.23,-35.95,-35.95,0,*5B
1485842709.67,17254,9.75,73198.8,-8.23,-35.95,-35.95,0,*5C
1485842710.94,17255,9.75,73196.0,-8.23,-36.01,-35.95,0,*53
1485842712.2,17256,9.75,73196.3,-8.23,-36.19,-36.13,0,*54
1485842713.43,17257,9.75,73198.5,-8.23,-36.31,-36.31,0,*5F
1485842714.67,17258,9.75,73198.5,-8.23,-36.31,-36.19,0,*5A
1485842715.9,17259,9.75,73202.0,-8.23,-36.19,-36.19,0,*51
1485842717.14,17260,9.75,73196.5,-8.23,-36.01,-36.01,0,*5B
1485842718.4,17261,9.75,73196.5,-8.23,-36.19,-36.13,0,*50
1485842719.61,17262,9.75,73194.5,-8.21,-36.19,-36.31,0,*51
1485842720.84,17263,9.75,73196.0,-8.23,-36.31,-36.19,0,*52
1485842722.1,17264,9.75,73198.5,-8.23,-36.37,-36.31,0,*59
1485842723.35,17265,9.75,73196.8,-8.21,-36.37,-36.55,0,*58
1485842724.63,17266,9.75,73198.5,-8.23,-36.37,-36.37,0,*5D
1485842725.89,17267,9.75,73196.5,-8.23,-36.37,-36.31,0,*5A
1485842727.12,17268,9.75,73194.0,-8.21,-36.19,-36.13,0,*5B
1485842728.39,17269,9.75,73198.5,-8.23,-36.13,-36.01,0,*51
1485842729.6,17270,9.75,73196.8,-8.25,-36.07,-36.07,0,*5C
1485842730.8,17271,9.75,73196.3,-8.25,-36.19,-36.07,0,*52
1485842732.01,17272,9.75,73194.5,-8.25,-36.19,-36.19,0,*5E
1485842733.26,17273,9.75,73196.5,-8.23,-36.37,-36.19,0,*55
1485842734.51,17274,9.75,73196.8,-8.23,-36.01,-36.01,0,*5E
1485842735.8,17275,9.75,73196.3,-8.23,-35.95,-35.95,0,*5F
1485842737.08,17276,9.75,73196.0,-8.23,-36.37,-36.37,0,*5C
1485842738.34,17277,9.75,73194.8,-8.23,-36.37,-36.19,0,*51
1485842739.58,17278,9.75,73198.5,-8.23,-36.01,-36.01,0,*52
1485842740.87,17279,9.75,73198.5,-8.23,-36.13,-35.95,0,*5E
1485842742.17,17280,9.75,73196.5,-8.23,-35.83,-35.95,0,*52
1485842743.46,17281,9.75,73194.8,-8.23,-35.95,-35.95,0,*54
1485842744.73,17282,9.75,73200.3,-8.23,-36.13,-36.01,0,*54
1485842745.96,17283,9.75,73196.8,-8.23,-36.19,-36.19,0,*56
1485842747.19,17284,9.75,73196.5,-8.23,-36.19,-36.19,0,*51
1485842748.42,17285,9.75,73194.0,-8.23,-36.31,-36.19,0,*5A
1485842749.66,17286,9.75,73198.8,-8.21,-36.37,-36.31,0,*57
1485842750.89,17287,9.75,73198.3,-8.23,-36.19,-36.19,0,*52
1485842752.16,17288,9.75,73198.3,-8.25,-36.37,-36.25,0,*58
1485842753.41,17289,9.75,73196.3,-8.23,-36.13,-36.19,0,*56
1485842754.65,17290,9.75,73198.3,-8.23,-36.01,-36.01,0,*54
1485842755.92,17291,9.75,73192.8,-8.23,-35.95,-36.01,0,*5B
1485842757.22,17292,9.75,73194.8,-8.23,-35.95,-35.95,0,*56
1485842758.51,17293,9.75,73198.0,-8.23,-35.95,-35.95,0,*57
1485842759.76,17294,9.75,73194.3,-8.23,-36.01,-36.01,0,*50
1485842761.05,17295,9.75,73198.3,-8.23,-35.83,-35.95,0,*56
1485842762.32,17296,9.75,73192.5,-8.21,-35.83,-35.95,0,*57
1485842763.56,17297,9.75,73200.3,-8.23,-36.31,-36.31,0,*53
1485842764.85,17298,9.75,73198.0,-8.23,-35.95,-36.13,0,*51
1485842766.06,17299,9.75,73198.5,-8.21,-36.19,-36.01,0,*56
1485842767.33,17300,9.75,73198.8,-8.23,-35.83,-36.01,0,*55
1485842768.58,17301,9.75,73194.8,-8.21,-35.77,-35.83,0,*54
1485842769.85,17302,9.75,73200.3,-8.23,-35.77,-35.83,0,*55
1485842771.14,17303,9.75,73196.8,-8.23,-35.83,-35.95,0,*58
1485842772.43,17304,9.75,73196.5,-8.23,-35.83,-35.95,0,*5F
1485842773.71,17305,9.75,73196.5,-8.21,-35.95,-35.95,0,*5B
1485842774.97,17306,9.75,73194.3,-8.21,-35.83,-35.83,0,*58
1485842776.21,17307,9.75,73198.5,-8.21,-36.13,-36.01,0,*5A
1485842777.49,17308,9.75,73198.5,-8.23,-36.13,-36.13,0,*54
1485842778.7,17309,9.75,73198.8,-8.21,-36.19,-36.19,0,*57
1485842779.91,17310,9.75,73200.8,-8.21,-36.19,-36.19,0,*5F
1485842781.17,17311,9.75,73206.0,-8.21,-36.13,-36.13,0,*5E
1485842782.4,17312,9.75,73198.3,-8.19,-36.07,-36.07,0,*56
1485842783.64,17313,9.75,73200.0,-8.21,-36.13,-36.01,0,*5F
1485842784.9,17314,9.75,73200.0,-8.21,-35.95,-36.13,0,*56
1485842786.12,17315,9.75,73196.3,-8.21,-36.31,-36.31,0,*5A
1485842787.33,17316,9.75,73202.3,-8.21,-36.31,-36.19,0,*53
1485842788.54,17317,9.75,73200.0,-8.21,-36.31,-36.31,0,*58
1485842789.75,17318,9.75,73202.5,-8.21,-36.19,-36.19,0,*57
1485842790.96,17319,9.75,73202.0,-8.21,-36.31,-36.19,0,*5C
1485842792.2,17320,9.75,73202.5,-8.23,-36.31,-36.31,0,*5E
1485842793.43,17321,9.75,73200.3,-8.23,-36.19,-36.31,0,*55
1485842794.67,17322,9.75,73200.5,-8.21,-36.49,-36.31,0,*51
1485842795.9,17323,9.75,73200.0,-8.21,-36.13,-36.19,0,*55
1485842797.14,17324,9.75,73200.8,-8.23,-36.19,-36.01,0,*53
1485842798.37,17325,9.75,73202.5,-8.21,-36.13,-36.19,0,*53
1485842799.58,17326,9.75,73202.8,-8.21,-36.19,-36.19,0,*5A
1485842800.85,17327,9.75,73200.8,-8.23,-35.83,-36.01,0,*50
1485842802.11,17328,9.75,73202.0,-8.21,-36.49,-36.37,0,*5D
1485842803.38,17329,9.75,73202.0,-8.21,-35.83,-35.95,0,*52
1485842804.62,17330,9.75,73200.8,-8.21,-35.65,-35.77,0,*5E
1485842805.86,17331,9.75,73200.5,-8.21,-35.77,-35.83,0,*57
1485842807.07,17332,9.75,73200.0,-8.21,-35.47,-35.59,0,*50
1485842808.29,17333,9.75,73202.8,-8.21,-35.77,-35.77,0,*5E
1485842809.56,17334,9.75,73202.3,-8.21,-35.83,-35.83,0,*59
1485842810.83,17335,9.75,73198.0,-8.23,-35.77,-35.95,0,*56
1485842812.08,17336,9.75,73198.0,-8.19,-35.77,-35.77,0,*50
1485842813.32,17337,9.75,73198.8,-8.19,-35.71,-35.89,0,*56
1485842814.56,17338,9.75,73198.8,-8.19,-35.89,-35.89,0,*5E
1485842815.82,17339,9.75,73198.5,-8.21,-36.13,-36.13,0,*54
1485842817.1,17340,9.75,73196.3,-8.19,-36.13,-36.13,0,*51
1485842818.39,17341,9.75,73194.0,-8.19,-36.25,-36.25,0,*50
1485842819.67,17342,9.75,73194.5,-8.19,-36.13,-36.13,0,*53
1485842820.9,17343,9.75,73198.3,-8.19,-36.31,-36.31,0,*52
1485842822.19,17344,9.75,73196.5,-8.19,-36.25,-36.13,0,*50
1485842823.47,17345,9.75,73194.5,-8.19,-36.13,-36.13,0,*54
1485842824.74,17346,9.75,73194.0,-8.19,-36.07,-35.95,0,*5F
1485842825.98,17347,9.75,73196.5,-8.19,-35.77,-35.77,0,*56
1485842827.22,17348,9.75,73198.0,-8.19,-35.89,-35.89,0,*59
1485842828.46,17349,9.75,73194.8,-8.19,-36.07,-36.07,0,*58
1485842829.72,17350,9.75,73198.5,-8.19,-36.07,-35.95,0,*58
1485842830.98,17351,9.75,73192.3,-8.19,-36.13,-36.07,0,*54
1485842832.24,17352,9.75,73196.0,-8.19,-35.89,-35.95,0,*5F
1485842833.48,17353,9.75,73198.0,-8.19,-36.07,-36.07,0,*53
1485842834.76,17354,9.75,73198.8,-8.19,-36.25,-36.13,0,*51
1485842836.02,17355,9.75,73194.8,-8.19,-36.13,-36.07,0,*50
1485842837.25,17356,9.75,73194.0,-8.19,-36.07,-36.07,0,*56
1485842838.53,17357,9.75,73192.5,-8.19,-36.13,-36.13,0,*57
1485842839.79,17358,9.75,73192.5,-8.19,-36.25,-36.31,0,*5D
1485842841.05,17359,9.75,73192.8,-8.19,-35.95,-36.07,0,*51
1485842842.32,17360,9.75,73188.5,-8.19,-35.77,-35.95,0,*5F
1485842843.56,17361,9.75,73192.3,-8.19,-35.89,-35.89,0,*52
1485842844.85,17362,9.75,73194.3,-8.19,-36.25,-36.25,0,*51
1485842846.09,17363,9.75,73194.3,-8.19,-36.43,-36.31,0,*55
1485842847.35,17364,9.75,73194.8,-8.19,-36.43,-36.25,0,*57
1485842848.64,17365,9.75,73192.8,-8.19,-36.13,-35.95,0,*5B
1485842849.88,17366,9.75,73192.5,-8.21,-36.19,-36.13,0,*54
1485842851.11,17367,9.75,73194.5,-8.21,-36.37,-36.31,0,*59
1485842852.35,17368,9.75,73194.8,-8.17,-36.25,-36.31,0,*50
1485842853.59,17369,9.75,73194.8,-8.19,-36.43,-36.31,0,*5F
1485842854.82,17370,9.75,73192.3,-8.19,-36.31,-36.43,0,*57
1485842856.08,17371,9.75,73192.5,-8.21,-36.37,-36.37,0,*58
1485842857.29,17372,9.75,73192.5,-8.21,-36.31,-36.19,0,*51
1485842858.53,17373,9.75,73194.8,-8.21,-36.37,-36.31,0,*5C
1485842859.75,17374,9.75,73194.5,-8.21,-36.31,-36.31,0,*5D
1485842860.96,17375,9.75,73192.3,-8.21,-36.31,-36.31,0,*5C
1485842862.21,17376,9.75,73194.3,-8.21,-36.01,-35.95,0,*51
1485842863.44,17377,9.75,73192.0,-8.21,-36.13,-36.19,0,*54
1485842864.66,17378,9.75,73192.5,-8.21,-36.31,-36.01,0,*52
1485842865.91,17379,9.75,73196.0,-8.19,-36.13,-36.07,0,*5E
1485842867.15,17380,9.75,73196.0,-8.19,-36.31,-36.31,0,*5D
1485842868.35,17381,9.75,73190.5,-8.21,-36.19,-36.19,0,*57
1485842869.65,17382,9.75,73192.5,-8.19,-35.95,-35.95,0,*5F
1485842870.94,17383,9.75,73192.8,-8.19,-35.95,-35.95,0,*5E
1485842872.22,17384,9.75,73196.0,-8.21,-35.95,-35.95,0,*52
1485842873.45,17385,9.75,73196.0,-8.21,-36.13,-36.01,0,*50
1485842874.74,17386,9.75,73198.0,-8.19,-36.13,-35.95,0,*56
1485842875.95,17387,9.75,73196.3,-8.21,-36.19,-36.19,0,*51
1485842877.21,17388,9.75,73196.5,-8.21,-36.13,-36.13,0,*5E
1485842878.44,17389,9.75,73192.0,-8.19,-36.07,-36.07,0,*54
1485842879.7,17390,9.75,73192.8,-8.19,-36.25,-36.31,0,*59
1485842880.94,17391,9.75,73192.3,-8.19,-36.43,-36.43,0,*5D
1485842882.18,17392,9.75,73196.0,-8.19,-36.43,-36.31,0,*5B
1485842883.44,17393,9.75,73196.0,-8.21,-36.49,-36.49,0,*54
1485842884.69,17394,9.75,73192.0,-8.21,-36.37,-36.37,0,*53
1485842885.96,17395,9.75,73198.5,-8.21,-36.49,-36.49,0,*52
1485842887.22,17396,9.75,73196.3,-8.21,-36.49,-36.49,0,*51
1485842888.46,17397,9.75,73196.8,-8.21,-36.49,-36.31,0,*5F
1485842889.72,17398,9.75,73198.8,-8.21,-36.49,-36.49,0,*5F
1485842890.95,17399,9.75,73196.3,-8.23,-36.31,-36.19,0,*56
1485842892.18,17400,9.75,73194.8,-8.21,-36.13,-36.19,0,*53
1485842893.42,17401,9.75,73198.0,-8.23,-36.01,-36.01,0,*5A
1485842894.72,17402,9.75,73196.0,-8.19,-35.95,-35.95,0,*50
1485842895.92,17403,9.75,73198.0,-8.21,-36.19,-36.19,0,*5A
1485842897.21,17404,9.75,73198.5,-8.23,-36.37,-36.49,0,*56
1485842898.49,17405,9.75,73196.3,-8.23,-36.49,-36.49,0,*5E
1485842899.76,17406,9.75,73198.5,-8.23,-36.49,-36.55,0,*50
1485842901.02,17407,9.75,73198.5,-8.21,-36.49,-36.49,0,*5E
1485842902.26,17408,9.75,73196.8,-8.21,-36.55,-36.37,0,*55
1485842903.54,17409,9.75,73198.3,-8.23,-36.49,-36.37,0,*5B
1485842904.82,17410,9.75,73198.5,-8.23,-36.37,-36.37,0,*5A
1485842906.1,17411,9.75,73196.0,-8.23,-36.49,-36.49,0,*5B
1485842907.39,17412,9.75,73196.8,-8.23,-36.37,-36.49,0,*51